Hourly Data Report for October 08, 2014

All times are specified in Local Standard Time (LST). Add 1 hour to adjust for Daylight Saving Time where and when it is observed.

CLYDE RIVER A
NUNAVUT

70°29'09.000" N
68°31'01.000" W
26.50 m
2400804
71090
YCY

Download Data

Hourly Data (October 2014)
Hourly Data Report for October 8, 2014
Temp Definition
°C
Dew Point Temp Definition
°C
Rel Hum Definition
%
Wind Dir Definition
10's deg

Wind Spd Definition
km/h
Visibility Definition
km
Stn Press Definition
kPa
Hmdx Definition


Wind Chill Definition


Weather Definition


TIME
00:00 Legend Double Dagger -2.6 -4.5 87 32 32 16.1 102.31   -10 Snow
01:00 Legend Double Dagger -2.8 -4.2 90 32 32 12.9 102.29   -10 Snow
02:00 Legend Double Dagger -2.8 -4.5 88 33 32 16.1 102.28   -10 LegendNANA
03:00 Legend Double Dagger -2.7 -4.7 87 32 41 16.1 102.24   -11 LegendNANA
04:00 Legend Double Dagger -2.5 -4.6 86 33 43 16.1 102.19   -11 LegendNANA
05:00 Legend Double Dagger -2.7 -4.4 88 32 43 16.1 102.16   -11 LegendNANA
06:00 Legend Double Dagger -2.4 -5.0 82 33 37 16.1 102.14   -10 LegendNANA
07:00 Legend Double Dagger -2.5 -4.8 84 33 41 16.1 102.11   -11 LegendNANA
08:00 Legend Double Dagger -2.5 -4.7 85 33 45 16.1 102.10   -11 LegendNANA
09:00 Legend Double Dagger -2.8 -4.9 86 33 55 4.8 102.02   -12 Snow
10:00 Legend Double Dagger -2.6 -4.8 85 32 50 11.3 102.03   -12 Snow
11:00 Legend Double Dagger -2.7 -5.3 82 33 48 9.7 101.95   -12 Haze
12:00 Legend Double Dagger -2.5 -5.1 82 33 45 16.1 101.96   -11 LegendNANA
13:00 Legend Double Dagger -2.7 -4.9 85 32 50 16.1 101.93   -12 Snow
14:00 Legend Double Dagger -2.7 -5.0 85 32 50 14.5 101.89   -12 LegendNANA
15:00 Legend Double Dagger -2.7 -5.2 83 32 43 16.1 101.89   -11 LegendNANA
16:00 Legend Double Dagger -2.9 -5.6 82 32 48 16.1 101.87   -12 Freezing Rain
17:00 Legend Double Dagger -2.9 -5.6 82 33 41 16.1 101.84   -11 Snow
18:00 Legend Double Dagger -2.8 -5.7 81 33 48 16.1 101.78   -12 Snow
19:00 Legend Double Dagger -2.8 -5.1 84 33 41 16.1 101.75   -11 Snow
20:00 Legend Double Dagger -3.1 -4.9 88 33 50 4.8 101.62   -12 Snow
21:00 Legend Double Dagger -3.3 -5.6 84 32 50 16.1 101.62   -13 Snow
22:00 Legend Double Dagger -3.2 -6.4 78 32 43 16.1 101.57   -12 Snow
23:00 Legend Double Dagger -3.4 -6.7 78 32 34 16.1 101.56   -11 LegendNANA

Notes on Data Quality.

Legend

  • E = Estimated
  • M = Missing
  • NA = Not Available
  • ‡ = Partner data that is not subject to review by the National Climate Archives
Date modified: